{"data":{"norad_id":68189,"epoch":"2026-05-25T02:03:32.863392Z","epoch_age_seconds":71132,"freshness":"FRESH","line1":"1 68189U 26050Y   26145.08579703  .00027628  00000+0  82638-3 0  9996","line2":"2 68189  53.1590 271.6194 0001139  65.9952 294.1170 15.34377947 12284","mean_motion":15.34377947,"eccentricity":0.0001139,"inclination_deg":53.159,"raan_deg":271.6194,"arg_perigee_deg":65.9952,"mean_anomaly_deg":294.117,"bstar":0.00082638,"rev_number":1228,"period_min":93.849106917593,"perigee_km":461.98960798646,"apogee_km":463.54796632478,"semimajor_km":6840.9057871556,"source":"CELESTRAK","updated_at":"2026-05-25T13:38:21.857086Z"}}